Weather History for KCNI - December, 2013

Change the Weather History Date:

Saturday, December 21, 2013

  Actual Average (KGVL) Record (KGVL)
Temperature  
Mean Temperature 60 °F 42 °F  
Max Temperature 68 °F 51 °F 72 °F (1967)
Min Temperature 53 °F 34 °F 12 °F (1935)
Degree Days  
Heating Degree Days 4 23  
Month to date heating degree days 429  
Since 1 July heating degree days 964  
Growing Degree Days 10 (Base 50)    
Moisture  
Dew Point 55 °F    
Average Humidity 85    
Maximum Humidity 94    
Minimum Humidity 72    
Precipitation  
Precipitation 0.00 in 0.13 in 2.73 in (1951)
Month to date precipitation 3.46  
Year to date precipitation 52.94  
Sea Level Pressure  
Sea Level Pressure 30.03 in    
Wind  
Wind Speed 4 mph (East)    
Max Wind Speed 13 mph    
Max Gust Speed 17 mph    
Visibility 6 miles    
Events Rain    
T = Trace of Precipitation, MM = Missing Value Source: NWS Daily Summary

Daily Weather History Graph

Daily Weather History Graph

Search for Another Location

Airport or City:

Trip Planner

Search our weather history database for the weather conditions in past years. The results will help you decide how hot, cold, wet, or windy it might be!

Date:

Astronomy

Dec. 21, 2013 Rise Set
Actual Time 7:40 AM EST 5:31 PM EST
Civil Twilight 7:12 AM EST 5:59 PM EST
Nautical Twilight 6:40 AM EST 6:31 PM EST
Astronomical Twilight 6:10 AM EST 7:01 PM EST
Moon 9:37 PM EST (12/21) 10:14 AM EST (12/21)
Length of Visible Light 10h 47m
Length of Day
9h 51m
Waning Gibbous, 84% of the Moon is Illuminated
Dec 21
Waning Gibbous
Dec 25
Last Quarter
Jan 1
New
Jan 7
First Quarter
Jan 15
Full

Hourly Weather History & Observations

Time (EST) Temp. Dew Point Humidity Pressure Visibility Wind Dir Wind Speed Gust Speed Precip Events Conditions
12:15 AM 53.6 °F 44.6 °F 72% 30.13 in 10.0 mi Calm Calm - N/A   Mostly Cloudy
12:35 AM 53.6 °F 44.6 °F 72% 30.13 in 10.0 mi East 4.6 mph - N/A   Mostly Cloudy
12:55 AM 53.6 °F 44.6 °F 72% 30.12 in 10.0 mi East 4.6 mph - N/A   Mostly Cloudy
1:15 AM 53.6 °F 44.6 °F 72% 30.11 in 10.0 mi Calm Calm - N/A   Scattered Clouds
1:35 AM 53.6 °F 44.6 °F 72% 30.11 in 10.0 mi East 3.5 mph - N/A   Mostly Cloudy
1:55 AM 53.6 °F 44.6 °F 72% 30.11 in 10.0 mi Calm Calm - N/A   Mostly Cloudy
2:15 AM 53.6 °F 44.6 °F 72% 30.11 in 10.0 mi East 4.6 mph - N/A   Overcast
2:35 AM 53.6 °F 44.6 °F 72% 30.11 in 10.0 mi Calm Calm - N/A   Overcast
2:55 AM 53.6 °F 44.6 °F 72% 30.11 in 10.0 mi ESE 3.5 mph - N/A   Overcast
3:15 AM 53.6 °F 46.4 °F 77% 30.11 in 10.0 mi East 4.6 mph - N/A   Mostly Cloudy
3:35 AM 53.6 °F 46.4 °F 77% 30.10 in 10.0 mi East 4.6 mph - N/A   Scattered Clouds
3:55 AM 53.6 °F 46.4 °F 77% 30.09 in 10.0 mi East 4.6 mph - N/A   Mostly Cloudy
4:15 AM 53.6 °F 46.4 °F 77% 30.09 in 10.0 mi East 4.6 mph - N/A   Mostly Cloudy
4:35 AM 53.6 °F 46.4 °F 77% 30.08 in 10.0 mi East 4.6 mph - N/A   Mostly Cloudy
4:55 AM 53.6 °F 46.4 °F 77% 30.08 in 10.0 mi East 4.6 mph - N/A   Mostly Cloudy
5:15 AM 53.6 °F 46.4 °F 77% 30.07 in 10.0 mi East 3.5 mph - N/A   Mostly Cloudy
5:35 AM 53.6 °F 46.4 °F 77% 30.07 in 10.0 mi East 5.8 mph - N/A   Overcast
5:55 AM 55.4 °F 48.2 °F 77% 30.07 in 10.0 mi Calm Calm - N/A   Overcast
6:15 AM 55.4 °F 48.2 °F 77% 30.08 in 10.0 mi East 4.6 mph - N/A   Overcast
6:35 AM 55.4 °F 48.2 °F 77% 30.07 in 10.0 mi East 4.6 mph - N/A   Overcast
6:55 AM 55.4 °F 50.0 °F 82% 30.07 in 7.0 mi East 4.6 mph - N/A Rain Light Rain
7:15 AM 55.4 °F 50.0 °F 82% 30.07 in 5.0 mi East 5.8 mph - N/A   Haze
7:35 AM 55.4 °F 51.8 °F 88% 30.07 in 5.0 mi East 6.9 mph - N/A   Overcast
7:55 AM 55.4 °F 51.8 °F 88% 30.07 in 4.0 mi East 3.5 mph - N/A   Overcast
8:15 AM 55.4 °F 51.8 °F 88% 30.07 in 3.0 mi East 4.6 mph - N/A Rain Light Rain
8:35 AM 55.4 °F 51.8 °F 88% 30.07 in 2.0 mi East 4.6 mph - N/A Rain Light Rain
8:55 AM 55.4 °F 53.6 °F 94% 30.07 in 3.0 mi East 4.6 mph - N/A   Overcast
9:15 AM 55.4 °F 53.6 °F 94% 30.06 in 3.0 mi East 6.9 mph - N/A   Overcast
9:35 AM 55.4 °F 53.6 °F 94% 30.06 in 5.0 mi ESE 8.1 mph - N/A   Overcast
9:55 AM 55.4 °F 53.6 °F 94% 30.06 in 1.8 mi East 3.5 mph - N/A   Heavy Drizzle
10:15 AM 55.4 °F 53.6 °F 94% 30.06 in 1.5 mi East 5.8 mph - N/A Rain Light Rain
10:35 AM 57.2 °F 53.6 °F 88% 30.06 in 1.8 mi East 4.6 mph - N/A Rain Rain
10:55 AM 57.2 °F 53.6 °F 88% 30.05 in 1.2 mi East 5.8 mph - N/A Rain Light Rain
11:15 AM 57.2 °F 55.4 °F 94% 30.04 in 1.5 mi East 5.8 mph - N/A   Light Drizzle
11:35 AM 59.0 °F 55.4 °F 88% 30.03 in 1.5 mi East 3.5 mph - N/A   Overcast
11:55 AM 59.0 °F 55.4 °F 88% 30.03 in 2.5 mi East 4.6 mph - N/A   Overcast
12:15 PM 59.0 °F 57.2 °F 94% 30.02 in 2.5 mi East 3.5 mph - N/A   Overcast
12:35 PM 60.8 °F 57.2 °F 88% 30.00 in 3.0 mi East 4.6 mph - N/A   Overcast
12:55 PM 60.8 °F 59.0 °F 94% 29.99 in 3.0 mi Calm Calm - N/A   Overcast
1:15 PM 60.8 °F 59.0 °F 94% 29.99 in 3.0 mi East 4.6 mph - N/A   Overcast
1:35 PM 60.8 °F 59.0 °F 94% 29.98 in 3.0 mi East 3.5 mph - N/A   Overcast
1:55 PM 60.8 °F 59.0 °F 94% 29.98 in 2.0 mi East 3.5 mph - N/A   Drizzle
2:15 PM 60.8 °F 59.0 °F 94% 29.98 in 1.2 mi ENE 3.5 mph - N/A   Heavy Drizzle
2:35 PM 60.8 °F 59.0 °F 94% 29.97 in 1.2 mi East 3.5 mph - N/A   Overcast
2:55 PM 60.8 °F 59.0 °F 94% 29.97 in 1.5 mi East 4.6 mph - N/A   Overcast
3:15 PM 60.8 °F 59.0 °F 94% 29.97 in 3.0 mi East 4.6 mph - N/A   Light Drizzle
3:35 PM 62.6 °F 59.0 °F 88% 29.97 in 4.0 mi East 4.6 mph - N/A   Overcast
3:55 PM 62.6 °F 59.0 °F 88% 29.98 in 4.0 mi East 4.6 mph - N/A   Overcast
4:15 PM 62.6 °F 59.0 °F 88% 29.97 in 4.0 mi East 5.8 mph - N/A   Overcast
4:35 PM 60.8 °F 59.0 °F 94% 29.97 in 5.0 mi East 6.9 mph - N/A   Overcast
4:55 PM 62.6 °F 59.0 °F 88% 29.97 in 5.0 mi East 6.9 mph - N/A   Overcast
5:15 PM 62.6 °F 59.0 °F 88% 29.98 in 7.0 mi East 5.8 mph - N/A   Overcast
5:35 PM 62.6 °F 60.8 °F 94% 29.98 in 5.0 mi East 5.8 mph - N/A   Drizzle
5:55 PM 62.6 °F 60.8 °F 94% 29.97 in 5.0 mi East 8.1 mph - N/A Rain Rain
6:15 PM 62.6 °F 60.8 °F 94% 29.97 in 4.0 mi East 6.9 mph - N/A Rain Light Rain
6:35 PM 62.6 °F 60.8 °F 94% 29.98 in 5.0 mi East 4.6 mph - N/A   Overcast
6:55 PM 64.4 °F 60.8 °F 88% 29.98 in 5.0 mi East 6.9 mph - N/A   Overcast
7:15 PM 64.4 °F 60.8 °F 88% 29.98 in 5.0 mi East 4.6 mph - N/A   Overcast
7:35 PM 62.6 °F 60.8 °F 94% 29.97 in 5.0 mi East 5.8 mph - N/A   Overcast
7:55 PM 62.6 °F 60.8 °F 94% 29.97 in 7.0 mi East 4.6 mph - N/A   Overcast
8:15 PM 64.4 °F 60.8 °F 88% 29.97 in 7.0 mi East 4.6 mph - N/A   Overcast
8:35 PM 64.4 °F 60.8 °F 88% 29.97 in 7.0 mi East 4.6 mph - N/A   Overcast
8:55 PM 64.4 °F 62.6 °F 94% 29.96 in 10.0 mi ESE 6.9 mph - N/A   Overcast
9:15 PM 64.4 °F 62.6 °F 94% 29.96 in 10.0 mi South 4.6 mph - N/A   Overcast
9:35 PM 66.2 °F 60.8 °F 83% 29.95 in 10.0 mi ESE 5.8 mph - N/A   Overcast
9:55 PM 68.0 °F 60.8 °F 78% 29.96 in 10.0 mi SSE 5.8 mph - N/A   Overcast
10:15 PM 68.0 °F 60.8 °F 78% 29.96 in 10.0 mi SSE 4.6 mph - N/A   Overcast
10:35 PM 68.0 °F 60.8 °F 78% 29.96 in 10.0 mi South 8.1 mph - N/A   Overcast
10:55 PM 68.0 °F 60.8 °F 78% 29.96 in 10.0 mi South 10.4 mph - N/A   Overcast
11:15 PM 68.0 °F 60.8 °F 78% 29.95 in 10.0 mi South 12.7 mph 17.3 mph N/A Rain Light Rain
11:35 PM 68.0 °F 62.6 °F 83% 29.96 in 10.0 mi South 9.2 mph - N/A   Overcast
11:55 PM 68.0 °F 60.8 °F 78% 29.96 in 10.0 mi South 8.1 mph - N/A   Drizzle